Regional Weather Roundup
Issued by NWS

Home | Current Version | Previous Version | Graphics & Text | Print | Product List | Glossary On
Versions: 1 2 3 4 5 6 7 8 9 10 11 12 13 14 15 16 17 18 19 20 21 22 23 24 25 26 27 28 29 30 31 32 33 34 35 36 37 38 39 40 41 42 43 44 45 46 47 48 49 50
000
ASUS43 KDMX 251608
RWRIA

WEATHER ROUNDUP FOR IOWA
NATIONAL WEATHER SERVICE DES MOINES IA
1100 AM CDT SUN SEP 25 2016

NOTE: "FAIR" INDICATES FEW OR NO CLOUDS BELOW 12,000 FEET WITH NO
SIGNIFICANT WEATHER AND/OR OBSTRUCTIONS TO VISIBILITY.

* - THESE STATIONS ARE NOT NWS STATIONS...THUS NOT UNDER NWS
QUALITY CONTROL.  THEY ALSO DO NOT REPORT WEATHER SUCH
AS PRECIPITATION OR FOG.

IAZ001>003-012>014-020>022-031>034-043>046-251700-
   NORTHWEST IOWA

CITY           SKY/WX    TMP DP  RH WIND       PRES   REMARKS
CARROLL *      CLOUDY    61  52  72 W13G20    30.08R
CHEROKEE *     MOSUNNY   63  51  64 NW16G30   30.06R
DENISON *      CLOUDY    61  50  67 W12G18    30.09R
LE MARS *      CLOUDY    63  48  59 W21G33    30.08R
ORANGE CITY *  CLOUDY    61  50  67 W21G30    30.05R
SHELDON *      CLOUDY    63  50  63 W21G35    30.02R
SIOUX CITY     PTSUNNY   65  50  58 W22G33    30.07S
SPENCER        MOSUNNY   63  50  62 W23G36    30.02R
STORM LAKE *   MOSUNNY   61  50  67 W18G28    30.06R
$$

IAZ055>058-069>071-079>083-090>094-251700-
   SOUTHWEST IOWA

CITY           SKY/WX    TMP DP  RH WIND       PRES   REMARKS
ATLANTIC *     CLOUDY    61  52  72 W9        30.12R
AUDUBON *      CLOUDY    61  52  72 W6        30.11R
CLARINDA *       N/A     63  52  67 MISG      30.16R
COUNCIL BLFS *   N/A     61  50  67 NW8G15    30.14S
CRESTON *      PTSUNNY   61  54  77 NW13      30.13R
HARLAN  *      CLOUDY    59  52  77 W12G17    30.15R
LAMONI         CLOUDY    63  56  78 NW10      30.11R
RED OAK *      CLOUDY    63  52  67 NW9G17    30.14R
SHENANDOAH *   CLOUDY    63  50  63 NW10      30.16R
$$

IAZ047>049-059>061-072>074-084-251700-
   CENTRAL IOWA

CITY           SKY/WX    TMP DP  RH WIND       PRES   REMARKS
AMES           PTSUNNY   63  56  78 NW13      30.06R
ANKENY *         N/A    N/A N/A N/A MISG        N/A
BOONE *        PTSUNNY   63  54  72 W14       30.05R
CHARITON *       N/A     64  57  77 NW12      30.08R
DES MOINES     CLOUDY    65  53  65 NW10      30.07R
GRINNELL*      CLOUDY    66  64  91 W15       30.04R FOG
KNOXVILLE *    CLOUDY    63  57  82 NW12G20   30.06R
MARSHALLTOWN   CLOUDY    64  61  90 W15       30.03R
NEWTON *       CLOUDY    63  57  82 W8G18     30.04R
PELLA *        LGT RAIN  63  57  80 NW9G17    30.06R
PERRY *          N/A     64  54  69 NW14G23   30.08R
$$

IAZ004>006-015-016-023>025-035-036-251700-
   NORTH CENTRAL IOWA

CITY           SKY/WX    TMP DP  RH WIND       PRES   REMARKS
ALGONA *       PTSUNNY   63  52  67 W15       30.02S
CLARION *      CLOUDY    61  54  77 W16       30.03R
ESTHERVILLE    SUNNY     61  50  67 W17G29    30.00R
FORT DODGE *   MOSUNNY   61  54  77 W13       30.05R
MASON CITY     MOSUNNY   63  55  75 W12       30.01R
FOREST CITY *    N/A     63  55  77 W14       30.00R
WEBSTER CITY * CLOUDY    63  54  72 W15       30.03R
IOWA FALLS *     N/A     65  55  70 W14       30.04S
$$

IAZ007>011-017>019-026>030-037>042-050>054-066-251700-
   NORTHEAST IOWA

CITY           SKY/WX    TMP DP  RH WIND       PRES   REMARKS
CEDAR RAPIDS   PTSUNNY   75  68  78 SW15      29.99R
CHARLES CITY * CLOUDY    64  64 100 W17       30.00R
CLINTON *      MOSUNNY   79  70  74 SW14      30.00R HX  82
DECORAH *      CLOUDY    70  70 100 VRB7      29.95S
DUBUQUE        PTSUNNY   75  68  78 SW10      29.99S
MONTICELLO *   PTSUNNY   77  68  73 SW8G14    29.98F
OELWEIN *      CLOUDY    72  68  88 SW12      29.99S
WATERLOO       CLOUDY    68  64  87 W13       29.98R
$$

IAZ064-065-067-068-078-251700-
   EAST CENTRAL IOWA

CITY           SKY/WX    TMP DP  RH WIND       PRES   REMARKS
DAVENPORT      SUNNY     80  68  66 SW10G20   30.00S HX  83
IOWA CITY      PTSUNNY   79  67  66 W14G20    30.01R HX  81
MT. PLEASANT * MOSUNNY   83  67  57 SW13      30.02R HX  86
MUSCATINE *    MOSUNNY   82  66  57 SW14      29.99F HX  85
QUAD CITIES    SUNNY     81  69  67 SW10      29.99F HX  84
$$

IAZ062-063-075>077-085>089-095>099-251700-
   SOUTHEAST IOWA

CITY           SKY/WX    TMP DP  RH WIND       PRES   REMARKS
BURLINGTON     MOSUNNY   73  70  90 W10       30.02R
FAIRFIELD *    CLOUDY    81  66  61 W13       30.02R HX  83
FORT MADISON *   N/A     82  66  57 SW8       30.03S HX  85
KEOKUK *       MOSUNNY   82  66  57 SW13      30.03R HX  85
OSKALOOSA *    CLOUDY    73  65  78 W13       30.04R
OTTUMWA        CLOUDY    73  65  75 W14       30.04R
WASHINGTON *     N/A    N/A N/A N/A MISG        N/A
$$

ABBREVIATIONS USED IN REMARKS
   TC - TEMPERATURES IN CELSIUS
  WCI - WIND CHILL INDEX
   HX - HEAT INDEX
  VSB - VISIBILITY
$$




USA.gov is the U.S. government's official web portal to all federal, state and local government web resources and services.